Regional Weather Roundup
Issued by NWS Austin/San Antonio, TX

Current Version | Previous Version | Text Only | Print | Product List | Glossary On
Versions: 1 2 3 4 5 6 7 8 9 10 11 12 13 14 15 16 17 18 19 20 21 22 23 24 25 26 27 28 29 30 31 32 33 34 35 36 37 38 39 40 41 42 43 44 45 46 47 48 49 50
000
ASUS44 KEWX 131801
RWREWX
SOUTH TEXAS REGIONAL WEATHER ROUNDUP
NATIONAL WEATHER SERVICE AUSTIN/SAN ANTONIO TX
100 PM CDT SUN JUN 13 2021

NOTE: "FAIR" INDICATED FEW OR NO CLOUDS BELOW 12,000 FEET WITH NO
SIGNIFICANT WEATHER AND/OR OBSTRUCTIONS TO VISIBILITY.

* - THESE STATIONS ARE NOT NWS OR FAA STATIONS...AND ARE NOT SUBJECT
    TO NWS AND FAA QUALITY CONTROL.

TXZ171-172-183>190-131900-
TEXAS HILL COUNTRY AND EDWARDS PLATEAU

CITY           SKY/WX    TMP DP  RH WIND       PRES   REMARKS
JUNCTION       SUNNY     91  67  44 VRB3      30.07F HX  94
6HR MIN TEMP:  69; 6HR MAX TEMP:  92;

*LLANO         SUNNY     90  70  51 CALM      30.02F HX  95
BURNET         MOSUNNY   88  69  53 CALM      30.06F HX  92
6HR MIN TEMP:  71; 6HR MAX TEMP:  89;

*HORSESHOE BAY MOSUNNY   91  67  46 CALM      30.04F HX  94
6HR MIN TEMP:  71; 6HR MAX TEMP:  91;

*LAGO VISTA    MOSUNNY   93  69  44 S3        30.04F HX  98
6HR MIN TEMP:  74; 6HR MAX TEMP:  93;

*KERRVILLE     SUNNY     89  72  56 CALM      30.06F HX  95
6HR MIN TEMP:  72; 6HR MAX TEMP:  89;

*FREDERICKSBRG MOSUNNY   86  66  50 N3        30.08S
*ROCKSPRINGS     N/A     90  66  45 MISG      30.14F HX  92
*BOERNE        PTSUNNY   90  66  45 N3        30.05F HX  92
*CASTROVILLE   SUNNY     90  69  50 CALM      30.04F HX  94
HONDO          SUNNY     89  70  53 VRB3      30.03F HX  94
6HR MIN TEMP:  70; 6HR MAX TEMP:  90;

*UVALDE        SUNNY     88  70  55 CALM      30.05F HX  92
6HR MIN TEMP:  71; 6HR MAX TEMP:  88;

DEL RIO        SUNNY     95  69  42 SE10      30.01F HX 100
6HR MIN TEMP:  79; 6HR MAX TEMP:  95;

*LAUGHLIN AFB  NOT AVBL
*SPOFFORD      NOT AVBL
*EAGLE PASS    SUNNY     93  66  40 SE8G15    29.99F HX  96
CARRIZO SPRGS  SUNNY    N/A N/A N/A E3        29.99F
$$

TXZ173-191>194-202-209-217>225-228-131900-
CENTRAL AND SOUTH CENTRAL TEXAS

CITY           SKY/WX    TMP DP  RH WIND       PRES   REMARKS
GEORGETOWN     MOSUNNY   91  72  53 CALM      30.03F HX  98
6HR MIN TEMP:  72; 6HR MAX TEMP:  93;

*TAYLOR        MOSUNNY   93  74  53 N3        30.00F HX 102
6HR MIN TEMP:  74; 6HR MAX TEMP:  96;

AUSTIN/BERGSTM PTSUNNY   90  68  48 VRB3      29.99F HX  94
6HR MIN TEMP:  73; 6HR MAX TEMP:  92;

AUSTIN/MABRY   PTSUNNY   92  71  50 VRB5      30.01F HX  98
6HR MIN TEMP:  75; 6HR MAX TEMP:  94;

*PFLUGERVILLE  SUNNY     90  72  55 CALM      30.00F HX  96
SAN MARCOS     SUNNY     93  72  50 VRB3      30.01F HX 101
6HR MIN TEMP:  74; 6HR MAX TEMP:  93;

NEW BRAUNFELS  SUNNY     91  71  51 VRB3      30.00F HX  97
6HR MIN TEMP:  73; 6HR MAX TEMP:  92;

*RANDOLPH AFB  SUNNY     89  70  52 CALM      30.00F HX  94
6HR MIN TEMP:  73; 6HR MAX TEMP:  89;

*SEGUIN        NOT AVBL
SAN ANTONIO    PTSUNNY   91  68  46 CALM      30.02F HX  95
6HR MIN TEMP:  75; 6HR MAX TEMP:  91;

STINSON FIELD  SUNNY     92  71  50 VRB5      29.99F HX  98
6HR MIN TEMP:  77; 6HR MAX TEMP:  92;

*KELLY FIELD   MOSUNNY   89  74  61 CALM      30.00F HX  97
6HR MIN TEMP:  76; 6HR MAX TEMP:  89; 6HR PCP: TRACE;

*PLEASANTON    SUNNY     90  72  54 CALM      30.01F HX  97
6HR MIN TEMP:  76; 6HR MAX TEMP:  91;

*KENEDY        SUNNY     89  72  56 E6        30.00F HX  95
6HR MIN TEMP:  76; 6HR MAX TEMP:  90;

*LA GRANGE     PTSUNNY   90  76  62 W3        29.97S HX 101
6HR MIN TEMP:  77; 6HR MAX TEMP:  92;

*GIDDINGS      PTSUNNY   90  74  58 CALM      30.00S HX  99
6HR MIN TEMP:  76; 6HR MAX TEMP:  90;

*GONZALES      SUNNY     90  74  59 W3        30.00F HX  99
6HR MIN TEMP:  75; 6HR MAX TEMP:  90;

$$

TXZ163>164-176>182-195>201-210>213-226-227-235-131900-
SOUTHEAST TEXAS

CITY           SKY/WX    TMP DP  RH WIND       PRES   REMARKS
COLLEGE STN    MOSUNNY   93  75  55 NW10      29.98S HX 104
6HR MIN TEMP:  78; 6HR MAX TEMP:  93;

*BRYAN         PTSUNNY   90  73  57 NW6       30.00S HX  97
6HR MIN TEMP:  76; 6HR MAX TEMP:  91;

*CALDWELL      PTSUNNY   92  74  55 N6        30.00R HX 102
6HR MIN TEMP:  76; 6HR MAX TEMP:  93;

*CROCKETT      MOSUNNY   91  75  59 NW3       29.97F HX 102
*BRENHAM       MOSUNNY   92  75  57 CALM      29.98F HX 103
6HR MIN TEMP:  76; 6HR MAX TEMP:  93;

HUNTSVILLE     MOSUNNY   92  79  65 CALM      29.98F HX 108
6HR MIN TEMP:  79; 6HR MAX TEMP:  93;

CONROE         PTSUNNY   93  76  57 NW7       29.97F HX 105
6HR MIN TEMP:  78; 6HR MAX TEMP:  94;

HOUSTON BUSH   MOSUNNY   95  74  50 N5        29.96F HX 105
6HR MIN TEMP:  82; 6HR MAX TEMP:  96;

HOUSTON HOBBY  MOSUNNY   97  72  44 CALM      29.95F HX 105
6HR MIN TEMP:  82; 6HR MAX TEMP:  97;

*HOUSTON SW AP MOSUNNY   92  76  59 W3        29.97F HX 105
6HR MIN TEMP:  78; 6HR MAX TEMP:  93;

PEARLAND       SUNNY     95  75  52 NE5       29.97F HX 107
6HR MIN TEMP:  79; 6HR MAX TEMP:  95;

HOUSTON HOOKS  MOSUNNY   93  74  53 VRB6      29.97F HX 103
6HR MIN TEMP:  79; 6HR MAX TEMP:  93;

ELLINGTON FLD  NOT AVBL
SUGAR LAND     SUNNY     95  74  50 CALM      29.96F HX 105
6HR MIN TEMP:  81; 6HR MAX TEMP:  95;

*HOUSTON EXEC  MOSUNNY   91  77  62 CALM      29.99S HX 105
*CLEVELAND MUN MOSUNNY   92  73  53 N5        29.98F HX 100
6HR MIN TEMP:  78; 6HR MAX TEMP:  92;

*WHARTON       MOSUNNY   89  69  50 W5        29.99F HX  94
6HR MIN TEMP:  76; 6HR MAX TEMP:  89;

*COLUMBUS      FAIR      90  74  58 CALM      29.99F HX  99
6HR MIN TEMP:  75; 6HR MAX TEMP:  90;

*EAGLE LAKE    SUNNY     92  74  57 CALM      29.98S HX 102
6HR MIN TEMP:  78; 6HR MAX TEMP:  92;

$$

TXZ214>216-236>238-131900-
THE UPPER TEXAS COAST

CITY           SKY/WX    TMP DP  RH WIND       PRES   REMARKS
*ORANGE        MOSUNNY   93  74  53 N6        29.97S HX 102
6HR MIN TEMP:  80; 6HR MAX TEMP:  94;

PORT ARTHUR    SUNNY     94  78  60 NW8       29.94F HX 110
6HR MIN TEMP:  77; 6HR MAX TEMP:  94;

GALVESTON      SUNNY     94  74  52 NW5       29.96F HX 104
6HR MIN TEMP:  82; 6HR MAX TEMP:  94;

ANGLETON       MOSUNNY   91  74  57 VRB5      29.97F HX 100
6HR MIN TEMP:  77; 6HR MAX TEMP:  91;

*BAY CITY      NOT AVBL
PALACIOS       MOSUNNY   86  76  71 W8        29.98S HX  96
6HR MIN TEMP:  76; 6HR MAX TEMP:  87;

$$

TXZ229>234-239>247-131900-
TEXAS COASTAL BEND AND RIO GRANDE PLAINS

CITY           SKY/WX    TMP DP  RH WIND       PRES   REMARKS
VICTORIA       MOSUNNY   89  73  59 W6        29.99F HX  97
6HR MIN TEMP:  77; 6HR MAX TEMP:  91;

*BEEVILLE      MOSUNNY   90  78  68 CALM      29.99S HX 105
6HR MIN TEMP:  74; 6HR MAX TEMP:  90;

ROCKPORT       SUNNY     90  73  57 NW6       29.97S HX  98
6HR MIN TEMP:  78; 6HR MAX TEMP:  91;

*PORT ARANSAS  MOSUNNY   86  74  68 SE8       30.00S HX  94
6HR MIN TEMP:  79; 6HR MAX TEMP:  86;

*PORT LAVACA   MOSUNNY   87  75  66 CALM      29.99F HX  96
6HR MIN TEMP:  76; 6HR MAX TEMP:  87;

*INGLESIDE     MOSUNNY   90  75  62 CALM      29.97S HX 100
CORPUS CHRISTI MOSUNNY   91  73  55 VRB5      29.98S HX  99
6HR MIN TEMP:  73; 6HR MAX TEMP:  92;

CORPUS NAS     MOSUNNY   89  76  65 E7        29.98S HX 100
6HR MIN TEMP:  79; 6HR MAX TEMP:  90;

*ROBSTOWN      PTSUNNY   92  76  60 CALM      29.99S HX 104
6HR MIN TEMP:  76; 6HR MAX TEMP:  92;

ALICE          SUNNY     90  70  51 E6        29.99R HX  95
6HR MIN TEMP:  75; 6HR MAX TEMP:  90;

KINGSVILLE NAS SUNNY     91  71  51 E5        29.98S HX  97
6HR MIN TEMP:  73; 6HR MAX TEMP:  91;

COTULLA        NOT AVBL
LAREDO         SUNNY     92  67  43 CALM      29.98S HX  95
6HR MIN TEMP:  75; 6HR MAX TEMP:  93;


USA.gov is the U.S. government's official web portal to all federal, state and local government web resources and services.